Location: Rounton
(54.4000°N, 1.3500°W)
Time: 13:44:49
(UTC+00:00)

Transit 2A - Pass Details

Date: 01 December 2021
Orbit: 591 x 967 km, 66.7° (Epoch: 17 January)

Event Time Altitude Azimuth Distance (km) Brightness Sun altitude
Rises 07:16:19 0° 312° (NW) 3,610 - -6.5°
Exits shadow 07:18:00 - 316° (NW) 3,031 8.5 -6.3°
Reaches altitude 10° 07:19:01 10° 320° (NW) 2,691 8.2 -6.2°
Maximum altitude 07:25:02 42° 30° (NNE) 1,361 7.3 -5.4°
Drops below altitude 10° 07:31:01 10° 100° (E) 2,688 10.2 -4.7°
Sets 07:33:42 0° 107° (ESE) 3,606 11.4 -4.4°
